Flag for Germany Weather past 2 weeks in Öhringen, Baden-Württemberg, Germany

Now
93 °F

Sunny.


Feels Like: 96 °F
Forecast: 69 / 98 °F
Wind: 1 mph from East

Location: Oehringen

Current Time: Jul 3, 2015 at 2:50:21 PM

Latest Report: Jul 3, 2015 at 2:00 PM


Visibility: 12 mi

Pressure: 30.16 "Hg

Humidity: 40%

Dew point: 65 °F

Location of ÖhringenLocation

Historic Weather in Öhringen — Graph

°F

Öhringen temperature yesterday

Maximum temperature yesterday: 94 °F (at 3:00 PM)
Minimum temperature yesterday: 68 °F (at 6:00 AM)
Average temperature yesterday: 82 °F

Past Weeks' High & Low Weather Summary

 TemperatureHumidityPressure
High94 °F (Jul 2, 3:00 PM)98% (Jun 18, 5:00 PM)30.24 "Hg (Jun 18, 5:00 PM)
Low49 °F (Jun 23, 7:00 AM)29% (Jun 30, 6:00 PM)29.75 "Hg (Jun 23, 2:00 AM)
Average65 °F70%30.09 "Hg
* Reported Jun 18 1:00 PM — Jul 3 1:00 PM, Öhringen, Weather by CustomWeather, © 2015

Note: Actual official high and low records may vary slightly from our data, if they occured in-between our weather recording intervals... More about our weather records

Advertising

Öhringen weather history for previous 24 hours

 ConditionsComfort  
Time TempWeatherWind HumidityBarometerVisibility
1:00 PM
Fri, Jul 3
90 °FSunny.2 mph44%30.18 "Hg12 mi
12:00 PM88 °FSunny.2 mph48%30.19 "Hg11 mi
11:00 AM86 °FSunny.2 mph51%30.19 "Hg14 mi
10:00 AM82 °FSunny.3 mph53%30.19 "Hg16 mi
9:00 AM80 °FSunny.1 mph57%30.19 "Hg12 mi
8:00 AM75 °FPartly sunny.No wind68%30.19 "Hg11 mi
7:00 AM72 °FPassing clouds.1 mph71%30.18 "Hg12 mi
5:00 AM72 °FClear.2 mph69%30.16 "Hg12 mi
4:00 AM73 °FPassing clouds.2 mph65%30.15 "Hg16 mi
3:00 AM73 °FClear.1 mph65%30.16 "Hg17 mi
2:00 AM77 °FClear.2 mph57%30.15 "Hg19 mi
1:00 AM79 °FClear.3 mph51%30.14 "Hg19 mi
12:00 AM79 °FClear.2 mph54%30.14 "Hg19 mi
11:00 PM
Thu, Jul 2
81 °FClear.2 mph49%30.13 "Hg19 mi
10:00 PM83 °FClear.2 mph49%30.11 "Hg19 mi
9:00 PM85 °FSunny.3 mph46%30.09 "Hg19 mi
8:00 PM89 °FSunny.3 mph39%30.08 "Hg19 mi
7:00 PM92 °FSunny.3 mph36%30.07 "Hg22 mi
6:00 PM94 °FSunny.3 mph33%30.07 "Hg22 mi
5:00 PM94 °FSunny.3 mph31%30.07 "Hg19 mi
4:00 PM93 °FSunny.5 mph33%30.07 "Hg22 mi
3:00 PM94 °FSunny.2 mph32%30.07 "HgN/A
2:00 PM92 °FSunny.2 mph32%30.09 "Hg25 mi
Weather by CustomWeather, © 2015

See weather overviewHow to use our weather pages